Regional Weather Roundup
Issued by NWS Charleston, SC

Current Version | Previous Version | Graphics & Text | Print | Product List | Glossary On
Versions: 1 2 3 4 5 6 7 8 9 10 11 12 13 14 15 16 17 18 19 20 21 22 23 24 25 26 27 28 29 30 31 32 33 34 35 36 37 38 39 40 41 42 43 44 45 46 47 48 49 50
000 ASUS42 KCHS 182112 RWRCHS Regional Weather Roundup National Weather Service Charleston SC 400 PM EST SUN FEB 18 2018 NOTE: "fair" indicates few or no clouds below 12,000 feet with no significant weather and/or obstructions to visibility. Not all stations are quality controlled. Use data with caution, especially dewpoint observations. SCZ027-030-031-034>040-042>050-182200- ...Southeast South Carolina... CITY SKY/WX TMP DP RH WIND PRES REMARKS N Charleston CLOUDY 64 51 62 E14 30.30R Waterfront Prk N/A 60 54 80 E16 30.15S Mount Pleasant MOCLDY 61 54 77 E9G18 30.31R Johns Island CLOUDY 61 54 77 NE14G23 30.30R Pinopolis N/A 63 52 67 E7 30.20 Moncks Corner CLOUDY 59 50 72 E8 30.31R Summerville CLOUDY 61 54 77 E3 30.31R Beaufort MCAS CLOUDY 65 56 72 E10 30.28R Beaufort Arpt CLOUDY 63 54 72 E9G20 30.28S HAZE Hilton Head Is CLOUDY 61 55 82 NE12 30.29R Walterboro CLOUDY 61 55 82 E9 30.29S Allendale CLOUDY 64 55 72 VRB5 30.26S ...Southern Midlands and Pee Dee... CITY SKY/WX TMP DP RH WIND PRES REMARKS Georgetown RAIN 55 48 76 E12G21 30.34R Kingstree CLOUDY 63 50 63 E9 30.30S Orangeburg CLOUDY 64 50 60 E5 30.28S Barnwell N/A 68 55 64 E8 30.27R Aiken CLOUDY 66 50 55 SE9 30.30S Manning MOCLDY 63 34 34 MISG 30.29S Columbia PTSUNNY 69 48 47 E8 30.27R Sumter CLOUDY 66 47 49 E9 30.27R Florence CLOUDY 66 46 48 SE10 30.30S Myrtle Beach CLOUDY 55 49 80 E13G21 30.35R N Myrtle Beach CLOUDY 57 49 74 E9G20 30.33R $$ GAZ063-065-086>088-099>101-113>116-118-119-134>141-150-182200- ...Southeast Georgia... CITY SKY/WX TMP DP RH WIND PRES REMARKS Savannah Arpt CLOUDY 66 59 78 E16 30.26R Hunter AAF CLOUDY 63 57 80 E17 30.24S Fort Stewart CLOUDY 70 63 77 NE6 30.23R Statesboro CLOUDY 70 58 64 E5 30.25S Sylvania CLOUDY 68 61 77 E5 30.27R Claxton CLOUDY 71 64 76 N9 30.24R HAZE ...CSRA, Central and far Southeast Georgia... CITY SKY/WX TMP DP RH WIND PRES REMARKS Thomson CLOUDY 64 51 62 SE6 30.30F Augusta-Bush CLOUDY 68 52 56 E9 30.25S Augusta-Daniel CLOUDY 68 51 54 E7 30.26S Swainsboro CLOUDY 70 61 73 SE6 30.25S Vidalia PTSUNNY 75 63 64 E6 30.23S Eastman CLOUDY 76 55 47 CALM 30.24S Hazlehurst MOCLDY 75 60 60 CALM 30.22R Alma CLOUDY 79 64 60 VRB3 30.21S Waycross PTSUNNY 80 57 46 CALM 30.20S Jesup NOT AVBL Baxley CLOUDY 72 64 78 CALM 30.22S Brunswick PTSUNNY 73 63 68 E13G18 30.24R Saint Simons FAIR 70 63 78 E10 30.24R $$ SCZ027-028-034-036>038-045-046-048>050-GAZ119-141-182200- ...Lake and Supplemental Coastal Observations... STATION/POSITION TIME TEMP WIND PRES WAVE SWELL AIR SEA DIR/SP/G HT/PER HT/PER/DIR (UTC) (F) (DEG/KT/KT) (MB) (FT/S) (FT/S/D) Winyah Bay 1945 57 90/ 15 1027.0 Lake Murray 2020 65 100/ 8/ 11 1024.0 ACE Basin NERRS 1945 65 60/ 5 1025.0 Fort Pulaski 2036 59 59 70/ 15/ 19 1025.5R Sapelo Island 2000 73 80/ 10 1024.0 $$ ANZ835-935-AMZ111-154-330-350-352-354-370-450-454-472-182200- ...C-MAN and Buoy Observations... STATION/POSITION TIME TEMP WIND PRES WAVE SWELL AIR SEA DIR/SP/G HT/PER HT/PER/DIR (UTC) (F) (DEG/KT/KT) (MB) (FT/S) (FT/S/D) Buoy 41004 2050 65 68 60/ 19/ 23 1025.0R 5/ 5 2/130/10 Buoy 41008 2050 63 61 60/ 12/ 14 1024.1S 2/10 2/100/10 Folly Beach CMAN 2100 58 50/ 19/ 22 1026.5R Capers Nearshore 2008 53 56 60/ 16/ 23 1025.5S Fripp Nearshore 2008 56 56 70/ 16/ 21 1023.8F STATION/POSITION TIME TEMP WIND PRES WAVE SWELL AIR SEA DIR/SP/G HT/PER HT/PER/DIR (UTC) (F) (DEG/KT/KT) (MB) (FT/S) (FT/S/D) 5E St. Marys GA 2100 59 N/A 2/10 Frying Pan Buoy 2050 61 64 60/ 19/ 25 1026.6R 5/ 6 2/110/10 Buoy 41025 2100 52 73 30/ 19/ 25 1029.2 Cape Lookout NC 2000 50/ 22/ 26 1028.9R Buoy 41002 2050 69 73 50/ 17/ 19 1024.6R 5/ 7 2/ 70/ 8 Buoy 41010 NOT AVBL St Augustine FL 2100 62 61 100/ 2/ 2 1023.8F $$

USA.gov is the U.S. government's official web portal to all federal, state and local government web resources and services.